RH
22 22 22 22 25 30 33 34 34 31 32 31 32 34 30 22 21 23 37 55 71 84 89 91 92 99 95 84 79 89 90 98 98 99 100 96 73 69 86 90 94 93 83
30 29 25 20 20 18 18 24 31 48 53 48 42 39 38 48 49 36 23 19 20 50 70 87 99 98 80 82 81 85 92 98 75 70 87 96 99 93 96 99 95 83 69
16 16 19 22 26 25 19 20 24 23 21 20 39 50 43 48 64 66 41 23 19 28 51 61 73 70 98 82 98 99 94 81 95 100 95 99 100 100 100 96 78 69 57
17 22 19 20 38 28 27 38 44 55 51 29 27 43 53 51 54 72 58 34 29 51 66 91 96 90 98 99 98 89 100 97 99 98 96 100 100 96 86 71 54 42 35
14 24 38 40 33 34 45 48 60 71 68 73 82 100 97 77 93 100 65 59 55 92 89 100 99 94 87 72 80 87 98 98 99 96 99 94 90 79 53 34 29 26 25
20 33 35 22 46 58 47 62 94 96 100 100 99 90 87 100 100 98 77 50 89 84 69 87 99 91 97 98 98 99 99 97 96 93 77 54 37 30 29 26 21 14 8
19 18 18 33 49 68 71 96 99 100 100 100 99 100 95 92 96 91 74 72 96 94 100 86 83 80 97 98 100 99 93 85 66 39 30 29 25 18 13 8 8 8 6
19 16 27 46 58 66 89 100 100 100 100 100 99 100 100 100 100 94 89 100 100 76 92 99 98 98 98 97 90 46 36 33 29 25 19 13 9 7 6 6 5 4 10
27 24 26 47 57 74 86 79 76 85 94 71 74 92 94 81 100 100 100 99 92 100 95 99 99 91 67 44 30 28 20 12 8 6 4 4 4 4 4 4 10 13 13
45 32 33 30 35 39 40 61 97 98 58 98 97 74 97 99 100 99 99 99 98 96 97 78 47 33 30 26 17 10 8 5 4 4 5 4 4 7 14 14 11 20 28
54 48 55 67 82 89 92 96 100 98 100 99 100 100 100 100 100 92 76 64 57 48 36 30 30 26 15 10 7 4 4 4 6 5 5 14 16 16 14 18 33 41 32
60 69 69 76 77 84 90 93 97 96 94 84 74 68 65 64 62 58 50 41 35 34 33 29 17 11 9 6 4 4 5 7 9 16 16 18 20 24 39 48 45 46 36
64 66 68 70 71 70 70 68 66 67 66 66 67 63 58 55 47 38 35 36 35 30 25 13 10 8 6 4 5 7 10 14 17 19 24 31 43 48 49 55 46 42 42
71 71 70 71 72 74 72 72 72 70 69 66 62 59 51 41 39 40 39 35 29 22 13 10 8 6 4 7 9 11 12 20 23 27 36 52 56 57 49 44 44 47 56
79 74 72 68 71 77 82 81 78 75 69 66 64 54 47 46 45 43 38 32 21 17 10 8 5 4 9 13 12 14 20 24 27 31 36 45 59 63 52 44 44 50 58
81 77 73 71 73 74 73 73 72 68 66 66 62 53 50 49 48 41 34 25 20 15 8 6 5 8 16 15 12 15 21 26 27 27 34 37 44 62 66 55 52 61 72
90 85 80 74 74 73 72 69 66 64 59 59 59 58 58 56 49 40 33 26 21 10 8 5 6 13 19 17 17 20 21 25 27 25 26 36 37 47 59 60 56 64 79
94 87 87 81 77 74 70 63 61 59 57 60 63 63 65 62 52 40 34 28 21 12 6 6 9 14 22 19 20 19 18 17 18 24 24 27 35 37 46 57 61 71 82
92 94 88 82 80 78 67 62 62 64 62 60 64 69 68 63 52 42 36 27 17 11 8 7 14 18 28 28 22 21 21 21 21 21 23 23 28 33 35 44 56 65 72
97 95 86 88 87 76 64 66 71 70 66 65 68 71 69 62 52 44 38 23 14 12 8 8 22 24 32 38 42 34 26 26 28 28 25 24 24 31 35 34 44 59 74
94 90 91 91 88 69 68 73 77 76 73 70 70 73 74 66 54 47 37 23 15 9 7 9 28 29 33 42 44 42 42 40 41 40 38 35 26 28 34 33 33 45 64
96 95 94 88 78 69 75 80 80 77 76 75 73 73 74 67 56 50 34 24 16 11 8 11 30 34 36 43 47 45 45 50 48 46 45 43 37 29 28 32 33 33 49
98 97 93 85 73 76 84 84 83 80 77 75 76 75 73 68 61 52 35 25 18 13 8 12 31 36 40 43 51 54 56 53 50 46 42 40 41 34 27 29 27 26 33
99 96 89 77 78 88 89 88 86 79 72 72 76 78 76 68 63 54 35 26 18 12 6 14 34 36 41 47 57 56 50 53 53 48 41 38 38 37 23 24 24 24 23
99 94 83 85 92 95 92 87 80 71 67 70 74 77 76 72 67 53 36 24 16 13 7 18 38 38 42 56 59 52 57 64 44 37 40 39 35 32 22 22 22 21 20
98 94 96 98 98 94 88 81 74 67 65 68 71 75 77 72 62 52 34 22 16 12 7 25 40 42 50 65 61 58 65 66 57 43 41 39 34 34 23 22 19 18 18
Wind_Speed
50 54 58 61 63 65 67 69 71 72 73 74 73 72 68 63 57 55 56 59 60 58 57 59 59 59 56 55 56 54 61 55 51 63 55 58 61 63 64 65 68 68 69
46 50 53 56 57 59 61 65 69 71 73 72 71 69 66 63 59 55 52 52 54 57 57 59 59 57 54 53 56 56 65 56 54 58 60 58 63 66 66 69 69 71 71
46 49 46 46 48 49 51 58 63 66 68 67 67 66 63 59 54 52 51 47 47 48 52 55 57 57 44 55 56 55 57 57 54 64 64 63 64 66 70 71 69 70 71
37 42 43 49 47 39 39 42 48 53 54 62 64 62 59 55 50 47 45 44 44 44 44 44 50 47 53 50 61 53 59 59 62 68 68 64 69 72 71 71 70 71 72
35 39 37 36 32 30 31 33 33 35 32 32 35 37 39 42 42 40 39 39 38 39 40 37 41 48 51 55 54 57 59 62 62 66 67 69 71 72 72 72 73 76 79
30 32 32 18 18 17 19 21 24 20 18 18 14 14 22 32 35 32 30 32 37 34 37 41 48 47 45 53 62 62 60 59 62 61 64 67 70 71 73 76 79 83 86
29 21 16 15 15 16 10 4 4 7 15 13 13 20 19 20 23 23 26 30 32 33 40 43 46 49 51 54 54 57 61 62 62 64 67 70 73 76 80 84 88 91 89
22 16 13 12 9 6 6 9 8 8 7 8 13 12 18 16 23 24 25 31 36 38 40 43 41 46 48 52 53 53 56 60 65 70 75 78 82 86 90 90 85 68 49
13 13 11 7 7 9 8 9 6 4 3 5 8 10 15 18 17 26 27 30 36 35 39 40 43 48 46 49 51 56 62 68 74 78 82 85 86 81 71 57 43 41 44
10 8 9 8 7 8 8 2 12 7 5 5 6 8 11 16 14 19 23 25 29 33 37 39 40 43 47 51 56 62 68 74 78 80 77 67 57 44 36 37 40 41 36
12 10 7 14 11 9 9 10 9 7 2 2 2 3 5 9 14 18 22 25 28 31 34 38 42 46 51 57 63 68 72 72 70 59 43 33 34 38 41 43 37 36 34
5 8 7 10 10 10 9 9 10 8 6 7 8 10 12 15 18 20 22 25 28 31 35 39 44 50 56 61 67 69 63 53 33 27 32 36 41 41 36 36 37 33 31
3 6 9 10 10 10 10 10 10 11 13 13 14 15 17 18 19 21 24 26 30 33 37 42 49 54 59 63 58 49 28 25 31 35 38 36 31 32 35 34 31 29 32
5 7 8 9 9 9 9 10 11 11 12 13 15 16 17 18 21 24 27 30 33 36 39 47 54 59 60 50 36 21 25 29 33 35 33 29 30 32 30 28 28 29 30
8 9 8 10 11 11 12 12 13 14 16 18 18 17 19 22 24 28 30 32 35 40 45 52 57 58 46 33 24 22 24 29 32 33 30 28 29 29 28 27 29 30 32
11 12 13 14 13 14 15 16 16 18 20 20 19 20 23 26 29 32 32 34 38 41 47 51 58 46 37 32 22 24 25 27 31 34 34 30 28 28 27 29 29 29 30
13 15 15 16 16 17 16 18 19 21 22 22 22 24 26 30 31 33 33 35 39 43 49 53 50 36 33 28 26 26 27 28 31 33 35 33 30 28 28 28 28 28 30
16 17 18 18 19 17 18 20 21 23 24 24 25 27 28 31 33 34 34 37 41 45 47 52 41 32 31 28 28 28 29 31 31 33 34 35 34 30 29 29 30 29 29
18 20 20 20 20 19 20 22 24 25 26 28 28 29 30 32 34 35 35 39 42 46 50 51 36 29 28 29 31 31 32 33 33 33 33 34 36 34 33 31 30 31 31
20 21 21 22 21 21 22 23 25 27 29 30 31 32 32 34 35 36 36 40 43 47 52 47 32 28 28 29 30 30 31 32 32 31 33 33 35 36 36 33 31 30 32
22 22 22 22 21 22 23 26 28 30 32 32 32 32 33 35 36 36 37 41 45 49 54 42 30 28 28 29 29 30 30 30 30 30 31 32 33 35 37 36 33 32 31
22 22 23 22 23 24 26 28 30 32 33 33 34 35 34 36 37 38 39 42 45 52 55 40 27 26 27 28 29 30 30 30 29 30 31 31 32 33 35 36 35 33 33
22 23 22 23 24 26 28 30 31 33 35 36 36 36 35 38 39 40 41 44 47 53 56 38 26 25 26 28 28 26 27 29 31 32 32 31 31 31 32 34 35 33 34
24 23 23 24 26 27 30 31 33 35 36 37 37 36 37 38 40 41 43 46 49 55 55 34 25 24 26 27 24 24 27 32 36 36 33 31 30 29 30 33 35 35 36
23 23 24 25 27 29 30 31 33 35 36 37 37 37 37 39 40 41 46 48 51 57 53 30 23 23 24 24 22 23 27 34 33 33 31 28 28 27 28 31 34 37 36
23 24 25 27 28 29 30 31 32 35 36 36 36 37 38 41 42 44 47 50 54 60 47 26 21 20 22 21 20 24 28 32 33 33 31 27 25 26 27 30 33 38 36
Wind_Direction
282 280 278 276 274 273 270 268 266 264 262 262 261 262 263 265 265 264 263 264 268 272 273 274 275 277 279 280 280 281 281 278 280 277 289 281 286 285 286 286 291 293 293
281 279 275 275 274 273 272 270 267 265 264 263 262 262 261 263 264 264 266 266 267 268 271 273 274 277 279 278 275 272 278 280 276 283 284 287 286 285 287 291 293 295 294
290 282 280 281 283 280 277 270 266 263 261 260 258 257 257 257 260 261 263 267 268 270 272 273 275 280 271 281 276 281 282 282 279 284 280 292 291 286 288 291 294 295 293
301 292 291 296 292 282 277 273 271 266 264 256 254 251 249 248 251 256 259 263 268 271 274 276 279 267 269 275 280 286 286 283 288 288 288 288 288 294 296 297 295 293 294
314 296 309 308 295 287 281 275 274 267 263 255 257 251 248 247 244 247 252 260 267 270 274 274 279 277 276 279 286 287 284 284 282 285 288 295 297 298 297 295 295 295 296
338 309 315 304 303 291 276 274 270 250 236 227 213 239 251 248 241 241 248 259 263 270 273 271 274 278 285 283 280 284 288 283 290 297 298 296 295 294 296 297 297 296 294
355 343 333 326 304 300 297 299 258 256 314 247 233 216 219 236 238 239 247 257 263 275 271 280 280 284 285 287 286 288 295 299 300 298 296 295 297 299 297 295 295 296 297
360 8 3 359 345 2 320 335 335 349 339 310 258 252 231 238 236 246 246 248 260 273 277 287 287 281 281 290 299 299 299 299 298 298 300 300 298 296 295 296 297 297 295
9 23 35 49 55 37 31 41 30 357 259 230 232 216 221 239 250 259 273 271 270 275 283 280 289 302 304 301 303 304 305 304 302 301 300 297 297 298 298 297 298 299 303
8 13 29 43 35 29 50 37 15 288 240 9 318 234 249 254 265 273 279 278 286 287 290 302 303 303 304 306 307 307 305 303 301 299 300 300 301 302 302 302 304 306 307
12 26 25 38 25 24 26 16 50 62 93 340 353 316 309 292 289 291 297 305 305 304 303 304 307 309 310 311 311 309 307 305 303 305 308 312 310 308 307 308 310 311 310
14 40 30 31 42 35 36 29 30 23 9 350 336 321 310 305 305 307 309 308 309 310 310 311 312 313 316 316 317 312 308 310 314 320 316 311 310 312 316 316 315 313 313
332 3 32 35 19 7 357 350 342 337 336 332 323 315 312 313 315 313 312 312 311 310 312 317 317 318 321 321 318 317 323 329 329 323 319 319 320 320 320 319 318 317 318
39 14 350 344 341 335 327 325 326 321 317 314 314 314 316 318 317 314 314 313 313 316 319 320 324 326 326 325 323 323 334 338 339 334 330 327 326 324 323 325 324 321 322
342 338 337 336 334 335 333 330 328 327 325 323 321 319 318 318 315 315 315 317 318 319 324 326 329 329 330 327 316 322 335 341 346 345 338 334 331 329 326 325 324 324 324
328 337 339 341 337 333 330 329 328 326 326 323 316 312 313 315 315 317 318 317 319 324 326 329 334 330 326 319 310 320 329 335 342 347 346 342 336 332 329 328 327 326 325
313 326 332 333 333 331 328 327 326 325 323 318 313 311 314 314 315 317 316 316 320 325 329 332 331 321 322 313 315 319 323 328 333 339 345 346 340 336 332 329 330 328 329
305 315 323 327 328 325 323 322 321 322 321 316 311 310 311 314 317 318 316 319 322 325 331 334 324 315 317 308 310 315 319 323 326 331 338 344 344 339 335 335 334 330 330
306 313 319 320 320 319 320 320 319 318 317 314 311 312 314 316 318 317 319 324 325 329 332 330 317 312 313 310 308 310 314 319 323 325 330 336 342 344 339 337 336 332 333
305 309 311 316 315 316 316 315 314 314 315 315 315 315 314 316 319 318 319 324 330 332 332 328 311 310 313 313 313 313 314 317 320 322 324 331 337 342 341 339 337 335 335
299 303 309 312 309 309 311 314 314 315 317 316 316 314 313 316 318 317 318 323 332 335 334 324 302 306 312 315 314 314 316 319 322 324 324 327 331 338 339 341 340 338 332
296 301 305 305 305 306 310 313 314 316 318 317 317 316 313 316 317 317 321 326 329 334 333 322 294 299 309 314 315 314 316 319 322 324 323 324 326 330 337 340 338 335 330
293 298 300 301 302 304 309 312 313 316 319 318 316 315 315 317 318 320 323 326 328 332 333 320 289 291 303 311 313 314 317 320 322 320 321 322 322 325 333 336 340 339 332
292 295 298 298 301 305 309 311 315 318 319 318 316 315 316 318 319 320 324 326 328 333 332 316 287 289 301 310 312 317 323 325 323 320 316 316 320 319 325 333 342 340 335
289 292 294 297 301 304 308 312 315 319 319 318 318 318 317 317 320 322 324 326 327 330 331 310 283 286 298 305 308 316 323 330 330 329 323 315 316 316 324 331 337 340 338
288 292 295 297 300 304 308 310 315 320 319 319 319 317 317 321 321 322 324 326 326 330 328 300 278 283 295 299 306 315 319 331 333 335 334 325 319 318 324 329 334 339 340